White Rock, British Columbia

6:06 AM PST on December 11, 2017 (GMT -0800)
White Rock

Weather History for CWWK - December, 2012

Change the Weather History Date:

Sunday, December 30, 2012

  Actual Average Record
Temperature  
Mean Temperature 36 °F -  
Max Temperature 43 °F - - ()
Min Temperature 29 °F - - ()
Degree Days  
Heating Degree Days 29    
Moisture  
Dew Point 31 °F    
Average Humidity 86    
Maximum Humidity 95    
Minimum Humidity 61    
Precipitation  
Precipitation 0.01 in - - ()
Sea Level Pressure  
Sea Level Pressure 30.32 in    
Wind  
Wind Speed 2 mph ()    
Max Wind Speed 5 mph    
Max Gust Speed -    
T = Trace of Precipitation, MM = Missing Value Source: Averaged Metar Reports

Daily Weather History Graph

Daily Weather History Graph

Search for Another Location

Airport or City:

Trip Planner

Search our weather history database for the weather conditions in past years. The results will help you decide how hot, cold, wet, or windy it might be!

Date:

Astronomy

Dec. 30, 2012 Rise Set
Actual Time 8:05 AM PST 4:22 PM PST
Civil Twilight 7:28 AM PST 5:00 PM PST
Nautical Twilight 6:47 AM PST 5:40 PM PST
Astronomical Twilight 6:09 AM PST 6:19 PM PST
Moon 7:14 PM PST (12/30) 9:04 AM PST (12/30)
Length of Visible Light 9h 32m
Length of Day
8h 17m
Waning Gibbous, 95% of the Moon is Illuminated
Dec 30
Waning Gibbous
Jan 4
Last Quarter
Jan 11
New
Jan 18
First Quarter
Jan 26
Full

Hourly Weather History & Observations

Time (PST) Temp. Windchill Dew Point Humidity Pressure Visibility Wind Dir Wind Speed Gust Speed Precip Events Conditions
12:00 AM 38.8 °F - 36.5 °F 91% 30.27 in - Calm Calm - N/A   Unknown
1:00 AM 37.0 °F - 34.9 °F 92% 30.28 in - North 1.2 mph - N/A   Unknown
2:00 AM 35.6 °F - 33.6 °F 92% 30.28 in - North 2.3 mph - N/A   Unknown
3:00 AM 33.8 °F 30.8 °F 32.0 °F 93% 30.30 in - NNE 3.5 mph - N/A   Unknown
4:00 AM 34 °F - 32 °F 88% 30.32 in - North 3.5 mph - -  
4:00 AM 33.6 °F 30.6 °F 31.8 °F 93% 30.32 in - North 3.5 mph - N/A   Unknown
6:00 AM 32.0 °F 27.5 °F 30.2 °F 93% 30.31 in - North 4.6 mph - N/A   Unknown
7:00 AM 30.7 °F - 28.9 °F 93% 30.31 in - ESE 2.3 mph - N/A   Unknown
8:00 AM 29.7 °F 26.1 °F 28.0 °F 94% 30.33 in - NNE 3.5 mph - N/A   Unknown
9:00 AM 31.8 °F - 30.6 °F 95% 30.34 in - NE 2.3 mph - N/A   Unknown
10:00 AM 35 °F - 33 °F 89% 30.35 in - ENE 3.5 mph - -  
10:00 AM 34.9 °F 32.0 °F 32.9 °F 92% 30.35 in - ENE 3.5 mph - N/A   Unknown
11:00 AM 36.0 °F 33.3 °F 31.5 °F 84% 30.36 in - NE 3.5 mph - 0.01 in   Unknown
12:00 PM 37.4 °F - 33.6 °F 86% 30.35 in - East 1.2 mph - N/A   Unknown
1:00 PM 39.6 °F - 33.4 °F 79% 30.34 in - South 2.3 mph - N/A   Unknown
2:00 PM 42.6 °F 40.9 °F 31.6 °F 65% 30.33 in - East 3.5 mph - N/A   Unknown
3:00 PM 42.4 °F - 30.7 °F 63% 30.33 in - East 2.3 mph - N/A   Unknown
4:00 PM 39 °F - 30 °F 61% 30.33 in - ENE 2.3 mph - -  
4:00 PM 39.0 °F - 30.4 °F 71% 30.33 in - ENE 2.3 mph - N/A   Unknown
5:00 PM 35.6 °F - 30.6 °F 82% 30.32 in - NNE 2.3 mph - N/A   Unknown
6:00 PM 33.4 °F - 30.0 °F 87% 30.32 in - Calm Calm - N/A   Unknown
7:00 PM 31.3 °F - 29.5 °F 93% 30.32 in - Calm Calm - N/A   Unknown
8:00 PM 31.8 °F - 29.5 °F 91% 30.32 in - ENE 1.2 mph - N/A   Unknown
9:00 PM 32.9 °F 29.8 °F 30.2 °F 90% 30.32 in - NNE 3.5 mph - N/A   Unknown
10:00 PM 33 °F - 30 °F 84% 30.32 in - NNE 3.5 mph - -  
10:00 PM 32.9 °F 29.8 °F 30.0 °F 89% 30.32 in - NNE 3.5 mph - N/A   Unknown
11:00 PM 33.3 °F - 30.2 °F 89% 30.33 in - NNE 2.3 mph - N/A   Unknown